Location: Unspecified
(0.0000°N, 0.0000°E)
Time: 15:06:39
(UTC+00:00)

A-11 Canister half - Pass Details

Date: 27 May 2026
Orbit: 1524 x 1684 km, 47.3° (Epoch: 7 June)

Event Time Altitude Azimuth Distance (km) Brightness Sun altitude
Rises 11:01:24 0° 227° (SW) 4,713 11.3 64.7°
Reaches altitude 10° 11:04:30 10° 230° (SW) 3,714 10.9 65.1°
Maximum altitude 11:13:42 64° 309° (NW) 1,660 10.5 66.2°
Drops below altitude 10° 11:22:51 10° 29° (NNE) 3,683 11.5 67.1°
Sets 11:25:56 0° 33° (NNE) 4,673 11.9 67.3°
